Flag Weather past 2 weeks in Venice, Italy

Now
48 °F

Passing clouds.


Feels Like: 47 °F
Forecast: 54 / 60 °F
Wind: 3 mph from North

Location: Venice / Tessera

Current Time: Nov 28, 2014 at 4:35:24 AM

Latest Report: Nov 28, 2014 at 3:50 AM


Visibility: N/A

Pressure: 29.95 "Hg

Humidity: 87%

Dew point: 45 °F

Location of VeniceLocation

Historic Weather in Venice — Graph

°F

Venice temperature yesterday

Maximum temperature yesterday: 50 °F (at 12:50 PM)
Minimum temperature yesterday: 46 °F (at 1:20 AM)
Average temperature yesterday: 47 °F

Past Weeks' High & Low Weather Summary

 TemperatureHumidityPressure
High64 °F (Nov 14, 1:20 PM)100% (Nov 17, 7:20 PM)30.36 "Hg (Nov 17, 7:20 PM)
Low37 °F (Nov 24, 3:50 AM)45% (Nov 19, 3:20 PM)29.53 "Hg (Nov 17, 11:50 PM)
Average51 °F83%30.00 "Hg
* Reported Nov 13 2:20 AM — Nov 28 2:50 AM, Venice, Weather by CustomWeather, © 2014

Note: Actual official high and low records may vary slightly from our data, if they occured in-between our weather recording intervals... More about our weather records

Advertising

Venice weather history for previous 24 hours

 ConditionsComfort  
Time TempWeatherWind HumidityBarometerVisibility
2:50 AM
Nov 28
48 °FPartly cloudy.5 mph87%29.95 "HgN/A
2:20 AM48 °FPartly cloudy.2 mph87%29.95 "Hg4 mi
1:50 AM48 °FPartly cloudy.5 mph87%29.95 "Hg4 mi
1:20 AM48 °FPartly cloudy.3 mph87%29.98 "Hg4 mi
12:50 AM48 °FFog.1 mph87%29.98 "Hg3 mi
12:20 AM48 °FFog.3 mph87%29.95 "Hg2 mi
11:50 PM
Nov 27
46 °FFog.3 mph93%29.98 "Hg2 mi
11:20 PM46 °FFog.5 mph93%29.95 "Hg2 mi
10:50 PM46 °FFog.3 mph93%29.95 "Hg2 mi
10:20 PM46 °FFog.2 mph93%29.98 "Hg1 mi
9:50 PM46 °FFog.2 mph93%29.95 "Hg2 mi
9:20 PM46 °FFog.5 mph93%29.95 "Hg2 mi
8:50 PM46 °FLight rain. Passing clouds.5 mph87%29.95 "Hg2 mi
8:20 PM46 °FPassing clouds.5 mph87%29.95 "Hg2 mi
7:50 PM46 °FPassing clouds.2 mph87%29.95 "Hg4 mi
7:20 PM46 °FDrizzle. Overcast.3 mph87%29.95 "Hg4 mi
6:50 PM46 °FDrizzle. Overcast.3 mph87%29.95 "Hg4 mi
6:20 PM46 °FDrizzle. Overcast.2 mph87%29.95 "Hg3 mi
5:50 PM46 °FLight rain. Overcast.3 mph87%29.95 "Hg2 mi
5:20 PM46 °FLight rain. Low clouds.5 mph87%29.95 "Hg2 mi
4:50 PM48 °FDrizzle. Low clouds.7 mph76%29.95 "Hg3 mi
4:20 PM48 °FDrizzle. Fog.6 mph76%29.92 "Hg2 mi
3:50 PM48 °FDrizzle. Overcast.5 mph76%29.95 "Hg4 mi
3:20 PM48 °FPartly sunny.5 mph76%29.95 "Hg4 mi
2:50 PM48 °FLight rain. Partly sunny.5 mph71%29.95 "Hg4 mi
2:20 PM50 °FPartly sunny.5 mph62%29.95 "HgN/A
1:50 PM50 °FPartly sunny.5 mph62%29.95 "HgN/A
1:20 PM50 °FPartly sunny.8 mph62%29.95 "HgN/A
12:50 PM50 °FPartly sunny.8 mph62%29.95 "HgN/A
12:20 PM48 °FBroken clouds.10 mph66%29.98 "HgN/A
11:50 AM48 °FBroken clouds.7 mph62%29.98 "HgN/A
11:20 AM48 °FBroken clouds.7 mph62%29.98 "HgN/A
10:50 AM48 °FBroken clouds.8 mph62%29.98 "HgN/A
10:20 AM48 °FBroken clouds.8 mph62%29.98 "HgN/A
9:50 AM48 °FBroken clouds.7 mph58%29.98 "HgN/A
9:20 AM46 °FBroken clouds.8 mph62%29.98 "HgN/A
8:50 AM46 °FBroken clouds.6 mph62%29.98 "HgN/A
8:20 AM46 °FPartly sunny.7 mph62%29.98 "HgN/A
7:50 AM46 °FPartly sunny.8 mph62%29.98 "HgN/A
7:20 AM46 °FPassing clouds.7 mph62%29.98 "HgN/A
6:50 AM46 °FPassing clouds.7 mph66%29.98 "HgN/A
6:20 AM46 °FPassing clouds.6 mph66%29.98 "HgN/A
5:50 AM46 °FPassing clouds.7 mph62%29.98 "HgN/A
5:20 AM46 °FPassing clouds.7 mph62%29.98 "HgN/A
4:50 AM46 °FPassing clouds.7 mph66%29.98 "HgN/A
4:20 AM46 °FPassing clouds.6 mph66%30.01 "HgN/A
Weather by CustomWeather, © 2014

See weather overviewHow to use our weather pages